TimeCDT,TemperatureF,Dew PointF,Humidity,Sea Level PressureIn,VisibilityMPH,Wind Direction,Wind SpeedMPH,Gust SpeedMPH,PrecipitationIn,Events,Conditions,WindDirDegrees,DateUTC
12:15 AM,73.4,70.2,90,30.04,7.0,SSW,5.8,-,N/A,,Clear,210,2013-08-27 05:15:00
12:35 AM,73.8,70.7,90,30.03,7.0,SSW,6.9,-,N/A,,Clear,210,2013-08-27 05:35:00
12:55 AM,73.8,70.7,90,30.03,7.0,SSW,6.9,-,N/A,,Clear,210,2013-08-27 05:55:00
1:15 AM,73.9,70.9,90,30.03,7.0,SSW,5.8,-,N/A,,Clear,210,2013-08-27 06:15:00
1:35 AM,73.8,70.7,90,30.02,7.0,SSW,6.9,-,N/A,,Clear,210,2013-08-27 06:35:00
1:55 AM,74.1,70.9,90,30.02,7.0,SSW,6.9,-,N/A,,Clear,210,2013-08-27 06:55:00
2:15 AM,74.3,71.2,90,30.01,7.0,SW,6.9,-,N/A,,Clear,220,2013-08-27 07:15:00
2:35 AM,74.3,71.2,90,30.01,7.0,SW,6.9,-,N/A,,Clear,220,2013-08-27 07:35:00
2:55 AM,73.8,70.7,90,30.00,7.0,SW,6.9,-,N/A,,Clear,220,2013-08-27 07:55:00
3:15 AM,73.8,70.7,90,29.99,7.0,SW,8.1,-,N/A,,Clear,220,2013-08-27 08:15:00
3:35 AM,73.4,70.5,91,29.99,7.0,SW,6.9,-,N/A,,Clear,220,2013-08-27 08:35:00
3:55 AM,73.8,70.7,90,29.99,7.0,SW,6.9,-,N/A,,Clear,220,2013-08-27 08:55:00
4:15 AM,73.9,70.7,90,29.99,7.0,SW,5.8,-,N/A,,Clear,220,2013-08-27 09:15:00
4:35 AM,73.8,70.7,90,29.99,10.0,SW,5.8,-,N/A,,Clear,220,2013-08-27 09:35:00
4:55 AM,75.0,71.2,88,29.99,10.0,SW,9.2,-,N/A,,Clear,230,2013-08-27 09:55:00
5:15 AM,75.7,71.6,87,29.99,10.0,WSW,9.2,-,N/A,,Clear,240,2013-08-27 10:15:00
5:35 AM,75.7,71.6,87,30.00,10.0,WSW,9.2,-,N/A,,Clear,250,2013-08-27 10:35:00
5:55 AM,75.7,71.6,87,30.00,10.0,WSW,10.4,-,N/A,,Clear,250,2013-08-27 10:55:00
6:15 AM,75.7,71.6,87,30.01,10.0,WSW,9.2,-,N/A,,Clear,250,2013-08-27 11:15:00
6:35 AM,75.7,71.6,87,30.01,10.0,West,10.4,-,N/A,,Clear,260,2013-08-27 11:35:00
6:55 AM,75.7,71.6,87,30.01,10.0,West,10.4,-,N/A,,Clear,260,2013-08-27 11:55:00
7:15 AM,75.7,71.6,87,30.01,10.0,WSW,10.4,-,N/A,,Clear,250,2013-08-27 12:15:00
7:35 AM,75.7,71.6,87,30.01,10.0,WSW,10.4,-,N/A,,Clear,250,2013-08-27 12:35:00
7:55 AM,76.6,72.3,86,30.02,10.0,WSW,9.2,-,N/A,,Clear,250,2013-08-27 12:55:00
8:15 AM,77.7,73.0,85,30.01,10.0,WSW,12.7,17.3,N/A,,Clear,250,2013-08-27 13:15:00
8:35 AM,78.8,73.4,83,30.00,10.0,WSW,12.7,18.4,N/A,,Clear,250,2013-08-27 13:35:00
8:55 AM,79.7,73.6,81,30.00,10.0,WSW,10.4,-,N/A,,Clear,250,2013-08-27 13:55:00
9:15 AM,81.3,74.5,80,29.99,10.0,WSW,11.5,-,N/A,,Clear,250,2013-08-27 14:15:00
9:35 AM,83.3,75.2,76,29.99,10.0,West,11.5,19.6,N/A,,Clear,260,2013-08-27 14:35:00
9:55 AM,84.4,75.7,75,29.99,10.0,WSW,12.7,19.6,N/A,,Clear,250,2013-08-27 14:55:00
10:15 AM,85.3,76.1,74,29.99,10.0,WSW,12.7,-,N/A,,Clear,240,2013-08-27 15:15:00
10:35 AM,84.6,76.1,76,29.99,10.0,WSW,9.2,-,N/A,,Clear,240,2013-08-27 15:35:00
10:55 AM,86.0,77.2,75,29.99,10.0,WSW,11.5,-,N/A,,Clear,240,2013-08-27 15:55:00
11:15 AM,86.4,76.5,72,29.98,10.0,SW,12.7,-,N/A,,Clear,230,2013-08-27 16:15:00
11:35 AM,87.3,77.2,72,29.98,10.0,SW,12.7,-,N/A,,Clear,220,2013-08-27 16:35:00
11:55 AM,88.0,76.8,69,29.97,10.0,SW,13.8,-,N/A,,Clear,220,2013-08-27 16:55:00
12:15 PM,89.2,78.1,69,29.96,10.0,SW,12.7,17.3,N/A,,Clear,220,2013-08-27 17:15:00
12:35 PM,88.9,78.4,71,29.96,10.0,SW,13.8,-,N/A,,Clear,230,2013-08-27 17:35:00
12:55 PM,89.1,79.0,72,29.96,10.0,SW,12.7,-,N/A,,Clear,230,2013-08-27 17:55:00
1:15 PM,88.9,78.6,72,29.95,10.0,SW,13.8,17.3,N/A,,Clear,220,2013-08-27 18:15:00
1:35 PM,90.0,78.4,69,29.95,10.0,SW,13.8,-,N/A,,Clear,220,2013-08-27 18:35:00
1:55 PM,90.1,78.6,69,29.94,10.0,SW,15.0,19.6,N/A,,Clear,230,2013-08-27 18:55:00
2:15 PM,90.9,79.0,68,29.93,10.0,SW,12.7,-,N/A,,Clear,220,2013-08-27 19:15:00
2:35 PM,90.9,78.1,66,29.93,10.0,SW,17.3,21.9,N/A,,Clear,220,2013-08-27 19:35:00
2:55 PM,90.9,77.7,65,29.92,10.0,SSW,13.8,20.7,N/A,,Clear,210,2013-08-27 19:55:00
3:15 PM,90.9,78.3,66,29.91,10.0,SW,17.3,-,N/A,,Clear,220,2013-08-27 20:15:00
3:35 PM,90.9,77.5,65,29.91,10.0,SW,17.3,-,N/A,,Clear,220,2013-08-27 20:35:00
3:55 PM,91.0,77.0,63,29.90,10.0,SW,16.1,21.9,N/A,,Clear,230,2013-08-27 20:55:00
4:15 PM,90.9,77.5,65,29.90,10.0,SSW,15.0,25.3,N/A,,Clear,210,2013-08-27 21:15:00
4:35 PM,91.4,78.3,65,29.89,10.0,SW,13.8,20.7,N/A,,Clear,220,2013-08-27 21:35:00
4:55 PM,90.9,77.2,64,29.89,10.0,SW,13.8,21.9,N/A,,Clear,220,2013-08-27 21:55:00
5:15 PM,90.9,76.6,63,29.89,10.0,SW,16.1,19.6,N/A,,Clear,230,2013-08-27 22:15:00
5:35 PM,90.5,76.1,62,29.89,10.0,SW,17.3,23.0,N/A,,Clear,220,2013-08-27 22:35:00
5:55 PM,89.6,77.0,66,29.89,10.0,SW,12.7,19.6,N/A,,Clear,220,2013-08-27 22:55:00
6:15 PM,89.1,77.2,68,29.89,10.0,SW,12.7,-,N/A,,Clear,220,2013-08-27 23:15:00
6:35 PM,87.8,77.0,70,29.88,10.0,SSW,12.7,-,N/A,,Clear,210,2013-08-27 23:35:00
6:55 PM,86.4,77.2,74,29.89,10.0,SSW,9.2,-,N/A,,Clear,210,2013-08-27 23:55:00
7:15 PM,85.1,77.2,77,29.89,10.0,SSW,8.1,-,N/A,,Clear,210,2013-08-28 00:15:00
7:35 PM,83.7,76.6,79,29.89,10.0,SSW,9.2,-,N/A,,Clear,210,2013-08-28 00:35:00
7:55 PM,82.2,76.5,83,29.89,10.0,SSW,8.1,-,N/A,,Clear,210,2013-08-28 00:55:00
8:15 PM,82.2,76.1,82,29.90,10.0,SW,8.1,-,N/A,,Clear,220,2013-08-28 01:15:00
8:35 PM,81.9,75.7,82,29.90,10.0,SW,8.1,-,N/A,,Clear,220,2013-08-28 01:35:00
8:55 PM,80.8,74.8,82,29.90,10.0,SW,9.2,-,N/A,,Clear,220,2013-08-28 01:55:00
9:15 PM,81.5,74.3,79,29.91,10.0,SW,8.1,-,N/A,,Clear,220,2013-08-28 02:15:00
9:35 PM,81.0,73.8,79,29.91,10.0,SW,6.9,-,N/A,,Clear,220,2013-08-28 02:35:00
9:55 PM,79.7,73.0,80,29.91,10.0,SW,6.9,-,N/A,,Clear,220,2013-08-28 02:55:00
10:15 PM,79.0,72.5,80,29.92,10.0,SW,6.9,-,N/A,,Clear,220,2013-08-28 03:15:00
10:35 PM,79.0,71.8,78,29.91,10.0,SW,8.1,-,N/A,,Clear,220,2013-08-28 03:35:00
10:55 PM,80.2,71.8,75,29.91,10.0,SW,10.4,-,N/A,,Clear,230,2013-08-28 03:55:00
11:15 PM,80.2,71.4,74,29.90,10.0,SW,10.4,-,N/A,,Clear,230,2013-08-28 04:15:00
11:35 PM,79.9,70.9,74,29.89,10.0,SW,11.5,-,N/A,,Clear,230,2013-08-28 04:35:00
11:55 PM,79.7,70.7,74,29.89,10.0,WSW,11.5,-,N/A,,Clear,240,2013-08-28 04:55:00